Wind_Speed
5 10 15 21 29 36 40 37 26 26 29 24 22 21 19 16 15 14 14 14 15 17 18 19 21 23 25 27 28 29 30 32 35 38 41 44 46 48 51 53 56 61 65 68
10 10 14 20 28 34 34 29 25 31 31 27 23 19 16 14 13 12 11 11 12 14 16 18 20 23 25 27 28 29 31 35 38 41 43 45 47 49 52 56 61 65 68 68
15 15 15 15 18 23 21 24 30 30 24 20 19 16 15 14 13 12 12 12 13 15 17 19 21 23 25 26 28 31 34 37 40 43 45 47 49 51 55 60 64 67 67 65
18 18 17 16 17 19 22 22 20 18 17 17 17 16 16 17 17 16 16 17 18 18 19 20 22 23 25 27 30 33 37 40 43 46 47 48 50 54 58 62 65 65 63 63
18 17 16 16 16 17 18 18 18 17 16 16 16 17 16 17 17 16 16 17 17 18 19 20 22 24 26 29 32 36 39 42 44 46 47 50 54 57 60 63 62 60 62 65
12 12 13 12 12 13 13 14 14 14 14 16 17 17 17 17 14 13 14 15 17 18 19 21 23 26 29 31 34 37 39 41 42 45 49 53 56 58 59 58 57 60 64 69
7 7 9 10 10 10 12 12 14 15 16 17 17 17 17 15 14 15 17 17 18 19 20 23 25 28 30 33 36 38 40 42 45 49 52 54 56 56 55 55 58 62 66 72
8 7 8 9 10 11 11 12 13 14 15 16 16 16 16 16 17 17 18 18 19 20 23 25 28 31 33 35 37 39 42 45 47 50 52 53 53 52 54 57 61 65 69 76
12 12 10 10 11 12 13 13 13 14 15 15 16 16 16 16 16 17 18 20 22 24 27 28 30 31 34 36 39 41 44 45 48 50 51 50 51 53 57 60 64 68 74 81
14 13 13 12 12 11 12 13 14 14 15 15 16 15 15 15 16 18 21 23 25 26 27 28 30 33 35 37 39 41 43 46 48 48 48 50 52 56 59 63 68 74 80 86
15 15 15 14 14 14 12 12 13 13 13 15 15 15 14 14 15 16 17 19 21 24 26 29 31 33 35 36 38 41 44 45 46 46 48 51 54 58 63 68 75 81 86 91
18 18 17 16 16 16 14 14 14 13 12 12 12 11 10 10 11 13 16 19 22 25 27 29 31 33 35 37 40 42 43 44 45 47 49 53 56 62 68 75 81 86 91 95
20 21 19 17 17 15 14 15 15 14 12 11 10 9 10 11 14 16 19 22 25 26 28 29 31 34 36 38 40 41 43 44 46 48 52 56 60 65 72 79 84 89 93 97
18 20 20 19 17 15 14 13 12 11 10 10 11 12 14 15 18 21 23 25 26 27 29 31 33 35 37 39 41 42 44 45 48 51 55 59 65 71 76 81 86 90 94 95
16 17 18 16 15 13 12 11 11 10 11 12 14 16 18 20 22 25 26 26 27 29 31 32 34 36 38 40 42 43 45 48 51 55 59 65 70 75 80 84 88 91 92 86
15 16 16 15 15 14 13 13 13 13 14 16 19 21 23 25 26 27 27 27 29 30 32 34 36 38 40 41 43 45 47 50 54 59 64 70 75 79 83 87 90 90 85 75
15 15 15 16 16 16 17 18 18 20 21 23 24 25 26 27 27 27 27 28 28 31 33 36 38 40 41 42 44 46 49 53 59 64 69 74 78 82 86 88 89 84 74 65
15 15 16 18 19 20 21 22 23 24 25 26 26 26 26 25 25 25 26 28 31 34 36 38 40 40 41 42 45 48 53 59 64 69 73 78 81 84 87 87 83 73 64 56
20 20 21 22 23 23 23 24 25 26 26 25 25 24 24 24 25 26 28 31 34 36 37 38 38 39 41 44 48 53 58 64 68 73 77 81 83 86 87 83 73 64 56 48
23 23 24 25 25 25 24 24 24 25 25 24 24 24 24 25 27 29 31 33 35 35 36 36 38 40 44 48 53 58 63 67 72 76 80 82 85 86 83 73 64 57 48 38
25 25 25 25 25 25 24 24 24 24 24 24 24 24 25 27 29 31 32 33 33 34 35 37 40 44 48 53 58 62 66 71 75 78 80 83 85 81 73 64 57 49 37 27
24 24 24 24 25 24 23 23 23 23 23 24 25 26 27 29 31 31 31 32 32 34 37 40 44 49 53 58 62 66 70 74 77 79 82 84 80 70 62 56 49 38 26 16
22 22 22 23 23 22 22 22 23 24 25 26 26 27 29 29 29 29 30 31 34 37 41 45 49 54 58 62 66 70 74 77 79 82 83 79 68 60 53 48 39 27 16 6
21 22 23 23 23 23 23 23 24 25 25 26 26 26 26 27 27 29 31 34 38 42 46 50 54 58 62 66 70 74 77 79 82 84 77 67 59 53 46 38 28 16 6 2
22 23 23 23 22 22 22 23 23 23 23 23 23 24 25 26 29 32 35 39 43 47 51 55 59 62 66 70 73 77 79 83 83 76 65 58 52 45 37 28 17 6 4 10
22 22 21 20 20 19 20 20 20 20 21 22 24 26 27 30 33 37 41 45 48 52 56 60 62 66 69 73 76 80 83 83 74 65 59 53 46 37 27 18 7 5 12 16
20 19 18 18 18 18 19 20 20 22 24 25 27 29 32 35 39 42 45 49 52 56 59 62 65 68 72 75 80 84 81 72 65 60 54 46 38 28 17 8 6 13 19 21
Wind_Direction
109 175 190 191 191 193 195 196 188 170 167 172 179 182 186 193 200 206 213 221 230 237 242 247 252 255 260 265 269 272 276 280 283 287 290 292 291 292 294 297 300 302 305 307
109 156 172 182 188 192 191 191 168 161 167 175 185 185 189 196 201 206 214 224 235 243 249 254 258 260 264 269 273 275 279 283 287 290 291 291 292 294 297 299 302 304 306 307
105 128 146 162 173 173 167 151 150 157 165 181 190 197 206 214 220 226 236 246 255 262 265 264 264 266 268 270 274 279 284 287 288 289 290 291 292 296 299 302 304 306 307 308
115 122 128 133 139 141 143 145 152 164 181 194 202 208 217 227 234 240 247 254 261 264 264 263 264 267 271 276 281 284 286 287 288 290 292 294 297 299 302 304 306 307 307 309
125 128 129 133 139 148 157 166 178 189 200 210 216 221 225 229 233 238 245 252 257 261 264 266 270 274 278 281 283 285 287 289 291 293 296 298 300 302 304 306 307 308 310 312
137 142 145 148 156 167 179 193 206 219 226 232 235 238 237 239 243 249 253 258 264 268 270 273 276 279 281 283 285 287 290 292 293 295 297 299 301 304 305 307 308 310 312 312
172 172 168 175 186 196 207 218 224 230 234 237 241 242 245 251 256 258 261 265 269 272 276 278 280 281 282 284 286 288 290 292 294 297 299 302 304 305 306 308 310 311 313 314
207 208 213 212 215 220 227 232 231 232 234 235 237 240 245 251 257 262 267 270 274 277 280 282 283 283 284 286 288 290 292 294 297 300 302 303 304 305 307 309 311 312 314 316
205 212 221 227 229 229 234 239 241 238 236 236 237 241 247 254 261 266 270 273 276 280 283 285 286 287 288 289 291 293 296 298 300 302 303 304 306 308 310 311 312 314 315 317
208 218 226 231 228 225 229 234 239 242 241 239 237 239 245 254 262 268 273 277 279 282 284 285 287 289 291 293 295 297 298 300 302 303 305 307 309 310 312 313 314 316 317 318
213 225 230 231 228 228 230 232 234 238 240 240 240 243 250 260 268 276 280 284 286 286 287 289 291 292 294 295 297 298 300 302 303 305 308 309 311 313 315 316 317 318 319 320
216 226 230 232 236 240 239 238 236 238 242 243 241 241 248 258 269 279 286 290 291 291 291 291 293 295 296 298 300 302 303 305 306 308 309 311 313 316 317 318 319 320 321 322
232 233 234 237 242 242 238 239 238 237 237 235 231 238 251 265 276 285 292 295 294 292 292 293 295 297 299 301 303 304 306 307 308 310 312 314 315 316 318 319 320 322 323 324
229 225 226 232 236 237 234 230 225 224 229 238 249 260 270 279 287 292 295 295 294 293 294 296 298 300 302 304 306 307 308 310 311 313 314 315 316 317 319 320 321 323 324 325
210 210 216 221 222 216 208 209 217 230 243 255 266 275 280 285 290 293 294 294 293 294 296 298 301 303 305 307 308 310 311 312 313 314 315 316 317 319 320 321 323 324 325 325
202 205 207 207 204 204 212 225 239 252 265 273 277 281 285 288 291 292 292 292 294 295 298 301 303 306 308 310 311 312 313 313 313 314 316 317 318 320 321 323 324 325 325 325
201 206 210 213 219 228 238 250 260 270 275 279 281 283 285 286 287 287 289 291 294 297 300 303 306 308 311 312 313 313 313 313 314 316 317 318 319 321 322 324 325 326 325 325
213 219 224 229 237 245 253 261 267 271 275 278 280 282 283 283 285 287 290 293 296 299 303 306 308 311 312 312 312 313 313 315 316 317 318 319 321 322 323 325 326 326 325 325
229 234 238 242 248 253 258 264 268 271 274 277 280 281 282 284 287 291 293 296 299 303 306 308 310 311 311 312 313 313 314 316 317 318 319 321 322 323 325 326 326 325 325 324
241 242 245 249 253 256 260 264 268 271 275 278 279 281 284 287 290 293 296 300 303 306 308 309 310 312 312 313 313 314 316 318 319 320 321 322 322 324 326 326 325 325 324 323
244 246 248 252 255 258 261 265 269 273 276 278 281 284 287 290 293 296 300 303 305 306 308 310 311 312 313 313 315 317 319 320 321 321 321 322 323 325 326 326 326 325 324 323
249 249 251 253 255 258 261 265 269 272 275 279 282 285 288 292 295 299 302 304 306 308 309 310 311 312 314 316 318 321 322 322 321 321 321 323 325 326 326 326 327 326 324 323
252 251 250 251 254 257 261 265 269 273 277 280 284 288 291 295 298 301 303 305 307 308 310 311 313 315 317 320 322 322 322 321 321 321 322 324 325 326 326 326 327 325 323 325
248 247 248 251 255 259 263 268 272 276 280 283 287 291 294 297 299 302 304 307 309 310 312 314 316 319 321 322 322 321 321 321 321 321 323 324 325 326 326 325 324 320 314 144
247 249 252 255 259 263 267 271 274 277 281 285 289 292 295 297 301 304 307 309 311 313 316 318 320 322 322 321 320 320 320 320 321 322 323 324 324 324 323 323 319 304 169 147
248 251 253 256 260 263 266 269 273 277 283 287 291 294 297 300 303 305 308 311 314 317 319 320 321 321 321 320 320 320 320 321 322 323 324 324 323 322 319 314 298 186 156 148
242 245 249 253 259 264 268 272 278 283 288 292 295 298 300 302 304 307 311 314 317 318 319 320 321 321 320 320 320 320 321 322 323 323 324 324 322 317 309 287 191 161 153 147
Height
5561 5563 5567 5572 5576 5580 5586 5595 5603 5612 5621 5630 5639 5645 5650 5655 5658 5662 5665 5668 5671 5673 5675 5677 5678 5678 5679 5679 5678 5678 5676 5674 5672 5669 5666 5661 5657 5652 5646 5640 5633 5626 5618 5608
5566 5568 5571 5575 5579 5584 5590 5597 5604 5612 5621 5630 5638 5644 5649 5653 5656 5659 5661 5664 5666 5668 5669 5670 5671 5672 5672 5671 5671 5670 5668 5666 5664 5660 5656 5652 5647 5641 5635 5628 5620 5612 5603 5593
5573 5575 5578 5582 5585 5589 5594 5600 5607 5615 5624 5632 5638 5642 5646 5649 5652 5655 5658 5660 5662 5663 5664 5664 5665 5665 5665 5664 5663 5662 5660 5658 5655 5651 5646 5641 5635 5629 5623 5615 5607 5597 5587 5577
5579 5583 5585 5590 5590 5594 5599 5605 5612 5619 5625 5631 5636 5640 5644 5647 5649 5652 5654 5656 5657 5658 5658 5659 5659 5659 5658 5657 5656 5654 5652 5649 5645 5640 5635 5630 5624 5618 5610 5602 5592 5582 5572 5562
5585 5587 5590 5593 5596 5600 5604 5609 5614 5619 5625 5630 5634 5637 5640 5643 5645 5648 5649 5651 5652 5652 5652 5653 5652 5652 5651 5650 5648 5646 5643 5639 5634 5630 5625 5619 5612 5605 5597 5588 5578 5568 5558 5548
5589 5592 5594 5598 5600 5603 5608 5611 5615 5619 5623 5626 5630 5634 5636 5638 5640 5642 5644 5645 5645 5646 5646 5646 5646 5645 5644 5642 5640 5637 5633 5629 5625 5620 5614 5607 5600 5592 5583 5574 5565 5555 5545 5534
5591 5593 5596 5599 5601 5604 5609 5612 5614 5616 5619 5623 5626 5629 5631 5633 5635 5636 5637 5639 5639 5640 5640 5640 5639 5638 5636 5634 5631 5628 5624 5620 5615 5609 5602 5595 5587 5578 5570 5562 5553 5544 5533 5521
5590 5593 5598 5598 5600 5604 5606 5608 5610 5613 5616 5619 5621 5624 5626 5628 5629 5630 5632 5633 5633 5634 5633 5633 5632 5630 5628 5625 5622 5618 5614 5609 5604 5597 5590 5583 5575 5566 5558 5550 5541 5531 5520 5507
5590 5593 5594 5596 5598 5601 5602 5604 5606 5609 5611 5614 5616 5619 5621 5622 5624 5625 5626 5626 5627 5626 5625 5624 5623 5621 5618 5615 5612 5608 5603 5598 5592 5585 5578 5570 5563 5555 5547 5538 5529 5518 5506 5493
5587 5589 5592 5594 5596 5597 5599 5601 5603 5605 5607 5609 5611 5613 5615 5617 5618 5619 5620 5620 5620 5619 5618 5616 5614 5612 5609 5606 5602 5597 5592 5587 5580 5573 5566 5559 5552 5544 5534 5525 5515 5503 5491 5476
5583 5585 5588 5591 5593 5595 5597 5599 5601 5602 5604 5605 5607 5609 5611 5612 5613 5614 5614 5614 5613 5612 5610 5608 5606 5603 5600 5596 5592 5587 5582 5576 5569 5563 5556 5548 5539 5530 5521 5510 5498 5486 5472 5456
5580 5582 5585 5588 5590 5592 5594 5596 5598 5599 5600 5602 5603 5605 5606 5607 5608 5608 5608 5608 5607 5605 5603 5600 5598 5595 5591 5587 5582 5577 5571 5565 5559 5552 5545 5537 5528 5517 5505 5494 5480 5465 5449 5433
5576 5578 5581 5583 5586 5588 5590 5592 5594 5596 5598 5599 5600 5602 5603 5603 5604 5603 5602 5601 5599 5597 5595 5592 5589 5586 5582 5577 5572 5567 5561 5555 5548 5541 5533 5525 5516 5506 5494 5479 5462 5446 5430 5414
5570 5573 5576 5579 5581 5584 5586 5589 5591 5593 5595 5596 5597 5598 5598 5598 5598 5597 5595 5593 5591 5589 5586 5583 5580 5576 5572 5567 5562 5556 5550 5544 5537 5529 5521 5512 5503 5492 5480 5466 5451 5432 5414 5397
5567 5570 5574 5576 5579 5581 5583 5586 5588 5590 5591 5592 5593 5593 5593 5592 5591 5590 5587 5585 5583 5581 5578 5574 5570 5566 5562 5557 5552 5546 5540 5533 5526 5518 5509 5499 5489 5477 5463 5449 5433 5418 5402 5385
5566 5568 5571 5574 5576 5579 5581 5583 5584 5586 5586 5587 5587 5586 5586 5585 5583 5581 5579 5577 5575 5572 5569 5565 5561 5557 5552 5547 5541 5536 5529 5522 5514 5505 5496 5485 5473 5460 5446 5431 5417 5401 5386 5373
5564 5566 5569 5571 5573 5575 5577 5579 5580 5580 5580 5580 5580 5579 5578 5576 5574 5573 5571 5569 5566 5563 5560 5556 5551 5547 5542 5537 5531 5525 5518 5510 5502 5492 5482 5470 5457 5443 5429 5415 5401 5385 5371 5359
5562 5564 5566 5568 5569 5570 5572 5573 5573 5573 5573 5573 5572 5571 5569 5568 5566 5565 5563 5560 5557 5554 5550 5546 5542 5537 5532 5527 5521 5514 5507 5498 5489 5479 5467 5454 5441 5427 5413 5399 5385 5371 5359 5348
5557 5559 5561 5562 5563 5564 5565 5565 5566 5566 5565 5564 5564 5563 5562 5560 5559 5557 5554 5552 5548 5545 5541 5537 5533 5528 5522 5516 5510 5503 5495 5486 5475 5464 5452 5438 5425 5411 5398 5384 5370 5358 5349 5340
5551 5553 5554 5555 5556 5557 5557 5558 5558 5558 5557 5557 5556 5555 5554 5552 5551 5548 5546 5543 5540 5537 5533 5528 5523 5518 5512 5506 5499 5491 5483 5472 5461 5449 5436 5423 5409 5396 5382 5369 5357 5348 5339 5332
5544 5545 5547 5548 5549 5550 5550 5550 5550 5550 5550 5549 5549 5548 5546 5544 5543 5540 5538 5535 5532 5528 5523 5518 5513 5508 5502 5495 5488 5479 5469 5457 5445 5433 5420 5408 5395 5381 5368 5356 5346 5338 5331 5326
5537 5538 5540 5541 5542 5542 5542 5542 5543 5543 5543 5542 5541 5540 5539 5537 5535 5532 5529 5526 5522 5518 5514 5509 5504 5498 5491 5483 5474 5464 5453 5441 5430 5417 5405 5392 5379 5367 5356 5346 5337 5330 5325 5323
5530 5531 5532 5534 5534 5535 5535 5536 5536 5536 5536 5535 5534 5533 5531 5529 5526 5524 5521 5518 5514 5510 5506 5500 5494 5487 5479 5470 5460 5449 5438 5427 5415 5402 5390 5377 5365 5355 5346 5337 5330 5325 5322 5321
5523 5524 5525 5526 5527 5528 5528 5529 5529 5529 5529 5528 5526 5525 5523 5520 5518 5516 5513 5510 5506 5501 5496 5489 5482 5474 5465 5455 5445 5435 5423 5412 5399 5386 5373 5361 5352 5344 5337 5330 5325 5322 5320 5321
5516 5517 5519 5520 5520 5521 5521 5522 5522 5521 5521 5520 5518 5517 5515 5513 5511 5508 5505 5501 5496 5491 5484 5477 5469 5460 5451 5441 5431 5419 5408 5396 5383 5370 5359 5350 5341 5334 5328 5324 5321 5319 5320 5321
5509 5510 5511 5512 5513 5514 5514 5514 5514 5514 5513 5512 5511 5510 5508 5506 5503 5499 5495 5490 5485 5478 5471 5463 5455 5446 5437 5426 5415 5403 5391 5379 5365 5355 5346 5338 5331 5325 5321 5319 5317 5318 5320 5322
5502 5503 5504 5505 5506 5507 5507 5507 5507 5507 5506 5505 5503 5502 5499 5496 5493 5489 5484 5478 5472 5465 5458 5450 5442 5432 5422 5411 5399 5387 5374 5362 5351 5342 5333 5326 5320 5316 5314 5314 5315 5317 5320 5323